Showing default

QIANFAN-22, 61555

Orbit data source: Space-Track

QIANFAN-22, 61555 is a Chinese payload satellite in LEO that was launched on Tue, 15 Oct 2024 UTC via a CHANG ZHENG 6A launch vehicle from the Taiyaun Space Center, China (TSC). Payload-class satellites include a variety of spacecraft equipped with specific instruments for various scientific and technological missions. These include communications satellites like Starlink; space stations such as the ISS; scientific satellites like the Hubble; Earth observation satellites from companies like Planet Labs, Umbra, and HawkEye 360; GPS; miniature CubeSats for education and research; and military/defense satellites.

Loading next visibility...
Identifier
61555, 2024-185D
Orbit
LEO
Last TLE update
11 hours ago
Origin
Manufacturer
GESIH/SECM
Mission
Operational Commercial Communications
Bus & Motor
QIANFAN, Unknown motor
Mass
267 kg wet, ~267 kg dry
Launch date (UTC)
2024-10-15 (9 months ago)
Launch vehicle
CHANG ZHENG 6A
Launch site
Taiyaun Space Center, China (TSC)
Object type
Payload
Rocket body
Debris
Shape & HBR
Box + 1 Pan, 10 m
Radar Cross Section
13.200 m², Large (>1 m²)

Expand to show TLE details & history

TLE from 11 hours ago
0 QIANFAN-22
1 61555U 24185D   25181.92852661  .00000190  00000-0  15292-3 0  9990
2 61555  88.9825  97.3114 0008332 125.0195 235.1760 13.86224937 46108
Epoch: 2025-06-30T22:17Z
TLE epoch observation values (Epoch: 2025-06-30T22:17:04.699Z)
Latitude
0.00009°
Longitude
-156.18947°
Altitude
948.382 km
Speed
7.376 km/s
True Right ascension
06h 29m 14s
True Declination
0° 00' 00"
Sunlit
Object was in daylight at epoch
Visualization orbit readout
Latitude
-40.02566°
Longitude
24.60871°
Altitude
957.919 km
Speed
7.371 km/s
Apparent Right ascension
14h 37m 39s
Apparent Declination
-66° 09' 46"
Sunlit
Object is in full shadow
Visualization observer readout
Local Sidereal Time
21:22:26
Azimuth
211.333° SW
Elevation
-40.324°
Doppler factor
1
Orbital elements
Apogee altitude
944.987 km
Perigee altitude
932.794 km
Semi-major axis
7,317.027 km
Eccentricity
0.00083
Inclination
88.9825°
RAAN
97.3114°
Arg. of periapsis
125.0195°
True anomaly
Unknown
Mean anomaly
235.176°
Eccentric anomaly
Unknown
Mean motion
3.4677 °/min
Orbital period
103.82 mins
BSTAR
0.00015292
Loading maneuver chart data...
Loading SW <> Apogee altitude chart data...
Loading historical data...
Loading historical data...
Loading historical data...
Loading historical data...
Loading historical data...
Loading historical data...
Loading historical data...

QIANFAN-22 Visibility forecast

Observer location: undefined°, undefined°

Span
Click to sort rows by Start time (UTC) header in descending order
Start Az.
Max El. time (UTC)
Max El. Az.
Max El.
End time (UTC)
End Az.
7 mins2025-07-01 17:29:06.527Z113.94° SE2025-07-01 17:32:06.527Z81.455° E18.291°2025-07-01 17:36:06.527Z36.009° NE
10 mins2025-07-01 19:11:06.527Z196.076° SSW2025-07-01 19:16:06.527Z281.229° WNW40.169°2025-07-01 19:21:06.527Z349.253° N
9 mins2025-07-02 06:04:06.527Z19.36° NNE2025-07-02 06:08:06.527Z77.624° E35.536°2025-07-02 06:13:06.527Z154.964° SSE
7 mins2025-07-02 07:49:06.527Z319.647° NNW2025-07-02 07:52:06.527Z279.628° WNW22.239°2025-07-02 07:56:06.527Z234.334° WSW
|